Date,TemperatureHighF,TemperatureAvgF,TemperatureLowF,DewpointHighF,DewpointAvgF,DewpointLowF,HumidityHigh,HumidityAvg,HumidityLow,PressureMaxIn,PressureMinIn,WindSpeedMaxMPH,WindSpeedAvgMPH,GustSpeedMaxMPH,PrecipitationSumIn
2013-1-1,18,9,3,8,3,-2,92,76,57,30.65,30.31,6,0,6,0.00
2013-1-2,23,10,2,8,2,-5,83,71,52,30.69,30.55,7,1,8,0.00
2013-1-3,20,6,-3,100,24,-47,78,65,45,30.83,30.69,6,1,6,0.00
2013-1-4,26,11,1,8,1,-5,77,63,44,30.80,30.55,5,0,5,0.00
2013-1-5,29,13,2,9,2,-4,78,62,38,30.75,30.59,5,1,5,0.00
2013-1-6,31,18,7,9,4,-2,68,56,38,30.72,30.37,5,0,5,0.01
2013-1-7,36,20,10,14,6,1,68,53,38,30.38,30.22,6,1,6,0.00
2013-1-8,34,22,13,14,8,2,72,56,39,30.63,30.26,5,1,6,0.00
2013-1-9,39,23,13,17,11,6,78,61,41,30.64,30.28,7,1,7,0.00
2013-1-10,39,27,17,24,14,7,86,59,30,30.28,29.55,29,4,29,0.00
2013-1-11,33,16,4,21,8,-2,87,71,50,30.05,29.36,32,7,33,0.00
2013-1-12,13,4,-5,100,9,-6,78,68,50,30.33,30.05,6,0,7,0.00
2013-1-13,10,2,-3,100,38,-6,81,75,58,30.45,30.31,7,0,8,0.00
2013-1-14,11,-2,-9,100,15,-413,80,69,48,30.72,30.45,7,0,7,0.00
2013-1-15,9,-1,-13,100,11,-100,83,65,49,31.03,30.71,5,0,5,0.00
2013-1-16,26,11,-1,100,7,-47,77,65,46,31.03,30.84,4,0,5,0.01
2013-1-17,33,19,9,15,10,4,84,69,46,30.89,30.69,5,0,6,0.00
2013-1-18,39,21,10,16,10,5,83,64,39,30.70,30.54,4,0,4,0.00
2013-1-19,39,23,10,14,8,1,74,54,31,30.68,30.56,6,1,6,0.00
2013-1-20,40,23,12,12,6,1,64,49,27,30.59,30.45,5,1,5,0.00
2013-1-21,41,24,12,13,6,0,61,46,28,30.59,30.47,6,1,6,0.00
2013-1-22,44,25,12,14,4,-2,54,41,24,30.57,30.48,6,1,6,0.00
2013-1-23,43,27,16,15,5,-2,48,38,24,30.60,30.45,5,1,7,0.00
2013-1-24,40,30,22,28,18,6,90,62,31,30.47,30.32,13,1,14,0.00
2013-1-25,38,33,30,33,30,27,91,89,79,30.40,30.20,5,0,5,0.08
2013-1-26,38,33,29,30,29,27,92,87,71,30.21,29.80,4,0,5,0.01
2013-1-27,41,34,30,33,27,20,92,77,54,29.90,29.73,23,3,26,0.25
2013-1-28,36,26,14,28,22,11,91,88,63,29.84,29.63,17,3,20,0.03
2013-1-29,17,11,4,13,7,0,95,83,79,30.32,29.83,9,2,11,0.00
2013-1-30,18,13,7,15,10,3,92,85,83,30.49,30.32,8,1,9,0.00
2013-1-31,30,23,18,24,19,14,88,84,77,30.57,30.42,9,1,9,0.01
2013-2-1,32,26,21,25,20,16,87,80,69,30.50,30.35,13,1,15,0.00
2013-2-2,38,23,12,19,14,7,84,70,45,30.67,30.50,5,1,5,0.05
2013-2-3,36,24,15,19,13,9,79,64,40,30.55,30.23,11,1,13,0.00
2013-2-4,38,23,12,19,12,6,82,64,40,30.36,30.26,5,1,6,0.00
2013-2-5,43,27,13,20,14,6,75,60,36,30.37,30.11,6,1,7,0.00
2013-2-6,37,28,20,27,20,13,88,74,55,30.20,30.00,11,1,13,0.00
2013-2-7,37,24,14,18,13,7,91,64,31,30.36,30.20,6,1,6,0.02
2013-2-8,42,28,14,24,14,4,74,57,36,30.21,29.75,22,2,23,0.00
2013-2-9,30,23,13,23,17,7,88,79,64,29.83,29.56,14,2,17,0.11
2013-2-10,29,17,10,14,9,5,84,71,49,30.13,29.83,6,1,6,0.04
2013-2-11,24,15,8,14,9,2,84,75,55,30.35,30.09,13,2,15,0.00
2013-2-12,25,13,3,10,4,-2,92,67,45,30.55,30.34,8,1,9,0.01
2013-2-13,32,22,14,17,13,8,79,67,52,30.57,30.33,7,0,8,0.01
2013-2-14,30,23,19,19,15,10,85,70,54,30.44,30.27,15,2,19,0.01
2013-2-15,29,21,16,15,11,7,79,66,49,30.65,30.43,15,3,15,0.00
2013-2-16,37,22,10,16,10,3,77,59,41,30.68,30.35,8,1,9,0.00
2013-2-17,42,27,16,20,11,4,83,52,27,30.35,29.80,22,3,23,0.00
2013-2-18,27,18,8,15,6,0,82,60,40,30.34,29.93,12,2,13,0.01
2013-2-19,41,21,6,11,4,-4,68,48,25,30.34,29.90,6,1,7,0.00
2013-2-20,37,26,18,22,12,3,89,57,38,29.90,29.55,12,2,13,0.00
2013-2-21,27,22,18,20,16,12,88,77,62,30.02,29.65,14,3,16,0.04
2013-2-22,25,17,9,15,9,1,86,72,46,30.29,30.01,12,2,14,0.01
2013-2-23,29,16,4,19,9,-2,88,74,55,30.27,29.92,13,1,13,0.01
2013-2-24,23,17,11,17,11,4,92,78,64,30.30,29.91,16,4,18,0.02
2013-2-25,29,16,2,13,5,-3,81,64,42,30.45,30.18,7,1,7,0.02
2013-2-26,20,17,8,14,10,3,92,77,62,30.42,30.04,16,3,16,0.01
2013-2-27,28,14,3,12,3,-2,92,64,34,30.64,30.42,10,1,11,0.01
2013-2-28,32,16,2,17,5,-5,86,62,36,30.75,30.63,12,1,12,0.00
2013-3-1,37,27,19,24,20,15,87,75,60,30.69,30.58,9,1,10,0.04
2013-3-2,49,33,21,26,21,16,82,62,38,30.61,30.21,4,0,4,0.00
2013-3-3,44,34,28,31,24,18,95,66,45,30.21,29.81,22,3,22,0.00
2013-3-4,35,26,11,32,19,3,92,77,50,30.36,29.77,21,4,23,0.17
2013-3-5,42,21,4,15,7,-2,83,56,27,30.63,30.36,6,1,6,0.07
2013-3-6,49,36,18,22,15,7,67,44,31,30.41,29.93,21,4,26,0.00
2013-3-7,51,42,33,21,16,12,46,34,24,29.93,29.80,23,5,25,0.00
2013-3-8,48,36,30,28,20,11,89,54,31,29.85,29.61,15,2,17,0.00
2013-3-9,30,26,18,27,23,13,90,86,81,30.18,29.57,14,3,14,0.04
2013-3-10,34,21,9,23,15,4,84,75,61,30.46,30.18,10,1,10,0.18
2013-3-11,42,28,16,25,18,10,81,66,44,30.46,30.21,13,1,13,0.00
2013-3-12,44,35,29,26,23,21,76,62,44,30.33,30.23,13,1,14,0.00
2013-3-13,50,36,24,26,21,17,77,56,32,30.44,30.32,9,1,9,0.00
2013-3-14,56,40,26,27,21,16,65,49,29,30.44,30.26,6,1,7,0.00
2013-3-15,56,42,31,28,23,19,60,48,31,30.26,29.92,15,2,17,0.00
2013-3-16,46,39,31,33,28,23,84,64,52,29.93,29.76,16,2,17,0.00
2013-3-17,39,32,28,32,23,9,90,70,42,29.93,29.67,34,4,34,0.11
2013-3-18,38,30,22,17,13,7,59,49,38,30.10,29.93,23,6,26,0.00
2013-3-19,42,32,24,15,8,-1,57,37,17,30.31,30.08,14,2,15,0.00
2013-3-20,44,30,17,27,12,-3,76,48,31,30.31,29.94,20,2,24,0.00
2013-3-21,36,31,21,33,26,15,91,81,66,29.95,29.64,25,2,32,0.38
2013-3-22,38,25,16,17,14,11,84,64,36,29.93,29.72,23,2,28,0.00
2013-3-23,23,17,7,14,8,0,79,68,46,30.35,29.86,18,3,19,0.00
2013-3-24,23,12,3,11,2,-4,78,62,43,30.51,30.35,18,3,18,0.01
2013-3-25,35,16,0,7,0,-7,72,51,26,30.61,30.45,6,1,8,0.00
2013-3-26,47,32,14,23,13,2,64,48,33,30.48,30.02,10,1,11,0.00
2013-3-27,52,40,29,26,22,17,71,50,30,30.03,29.93,11,1,12,0.00
2013-3-28,55,42,28,27,22,16,59,46,30,30.06,29.98,17,1,21,0.00
2013-3-29,54,44,36,30,26,20,74,50,36,30.11,30.00,13,2,15,0.00
2013-3-30,55,41,30,31,26,22,80,57,32,30.13,30.01,21,2,21,0.00
2013-3-31,57,42,27,28,22,18,73,49,29,30.12,29.93,12,2,13,0.00
2013-4-1,56,43,32,33,25,18,73,51,30,29.96,29.74,18,2,21,0.00
2013-4-2,48,38,31,33,30,26,92,74,42,29.99,29.79,15,3,18,0.08
2013-4-3,53,40,30,30,26,20,87,59,32,30.14,29.98,11,2,13,0.00
2013-4-4,60,45,28,29,23,20,73,45,26,30.19,29.96,15,2,22,0.00
2013-4-5,58,45,35,34,26,18,87,49,29,29.96,29.65,26,4,31,0.02
2013-4-6,56,42,31,35,29,21,90,64,31,29.92,29.82,20,3,23,0.00
2013-4-7,50,41,30,36,28,19,88,63,37,29.88,29.64,19,2,27,0.02
2013-4-8,57,42,34,32,26,19,90,54,27,29.65,29.23,22,2,24,0.06
2013-4-9,34,25,13,32,22,9,92,87,81,30.07,29.30,13,1,14,0.14
2013-4-10,32,19,6,22,13,2,86,75,55,30.32,30.07,15,2,15,0.10
2013-4-11,46,32,23,31,23,15,83,71,50,30.24,29.95,13,2,16,0.02
2013-4-12,52,38,30,35,25,15,91,63,25,29.97,29.86,12,2,17,0.10
2013-4-13,53,40,28,34,22,17,90,51,26,29.89,29.38,31,6,31,0.12
2013-4-14,38,31,23,30,21,14,91,67,44,29.73,29.49,23,3,24,0.24
2013-4-15,34,30,27,29,26,21,91,86,61,29.78,29.54,10,0,10,0.08
2013-4-16,50,34,24,31,25,21,90,72,37,29.79,29.56,32,5,37,0.26
2013-4-17,26,22,15,22,16,8,89,79,65,30.20,29.68,16,3,18,0.01
2013-4-18,28,19,11,15,9,6,81,66,47,30.56,30.20,15,3,18,0.00
2013-4-19,42,27,12,26,16,5,87,63,41,30.54,30.19,16,2,18,0.01
2013-4-20,46,34,28,35,29,25,91,81,55,30.19,30.00,17,2,17,0.13
2013-4-21,52,39,30,34,27,15,92,64,26,30.17,29.95,18,2,20,0.07
2013-4-22,52,42,30,31,26,19,87,53,35,29.96,29.72,24,5,26,0.00
2013-4-23,38,30,22,28,17,7,88,61,31,30.23,29.82,21,5,22,0.05
2013-4-24,48,33,18,18,12,8,68,45,23,30.32,30.21,16,3,18,0.00
2013-4-25,59,42,24,23,16,9,57,37,22,30.24,29.89,13,2,15,0.00
2013-4-26,61,43,30,22,17,14,53,37,19,30.15,29.98,14,2,15,0.00
2013-4-27,63,47,29,26,20,14,56,35,22,30.19,29.99,17,3,18,0.00
2013-4-28,68,51,33,31,24,17,53,35,23,30.04,29.75,18,3,18,0.00
2013-4-29,69,56,41,32,27,22,54,35,22,29.80,29.49,33,4,33,0.00
2013-4-30,66,55,40,34,28,21,78,36,25,29.54,29.35,30,5,34,0.00
2013-5-1,40,34,26,34,25,17,91,72,41,30.45,29.54,16,2,18,0.41
2013-5-2,46,32,18,21,16,11,77,55,31,30.68,30.45,10,2,12,0.01
2013-5-3,59,41,22,24,18,12,67,42,18,30.52,29.96,13,2,13,0.00
2013-5-4,62,47,30,29,22,17,59,39,20,29.96,29.75,17,2,20,0.00
2013-5-5,61,50,36,33,27,21,64,42,22,29.87,29.77,19,3,22,0.00
2013-5-6,59,46,37,38,33,25,90,62,37,29.88,29.70,16,2,17,0.29
2013-5-7,52,42,37,40,36,33,91,79,52,29.96,29.88,17,2,21,0.10
2013-5-8,44,37,33,38,33,29,90,86,78,30.07,29.90,15,1,17,0.26
2013-5-9,58,41,33,41,34,31,92,78,43,30.13,30.04,12,1,13,0.13
2013-5-10,61,46,32,39,30,24,86,58,33,30.20,30.09,21,2,23,0.00
2013-5-11,65,49,34,35,29,25,70,47,27,30.27,30.09,14,3,16,0.00
2013-5-12,69,54,40,38,32,28,65,45,26,30.17,29.98,13,2,15,0.00
2013-5-13,76,58,43,41,35,30,63,43,24,30.09,29.86,18,2,18,0.00
2013-5-14,77,57,44,44,36,31,64,48,25,29.89,29.67,25,3,28,0.01
2013-5-15,70,54,43,45,38,34,79,57,33,29.82,29.68,15,2,18,0.01
2013-5-16,68,55,37,43,36,30,86,53,30,29.81,29.64,18,2,25,0.00
2013-5-17,71,58,46,32,27,21,51,31,16,29.70,29.57,27,5,29,0.00
2013-5-18,62,48,38,40,32,22,89,56,31,29.81,29.61,23,3,24,0.11
2013-5-19,51,41,33,39,33,30,89,75,51,29.93,29.80,15,2,15,0.04
2013-5-20,50,42,36,41,34,29,86,73,50,30.03,29.90,14,2,18,0.15
2013-5-21,63,48,35,37,32,28,81,57,32,30.03,29.80,17,3,20,0.00
2013-5-22,72,56,37,39,30,24,70,41,20,29.81,29.58,22,4,24,0.00
2013-5-23,76,64,46,35,28,20,49,28,16,29.64,29.46,30,7,33,0.00
2013-5-24,72,62,50,31,25,20,34,25,18,29.70,29.55,26,7,29,0.00
2013-5-25,73,59,41,30,24,19,45,28,17,29.78,29.67,22,4,27,0.00
2013-5-26,74,60,44,33,26,19,44,28,15,29.74,29.57,22,4,24,0.00
2013-5-27,69,57,43,31,25,17,38,29,21,29.67,29.53,25,2,29,0.00
2013-5-28,70,55,40,34,28,22,56,38,23,29.60,29.39,25,4,26,0.00
2013-5-29,55,43,36,41,36,31,90,76,52,29.74,29.46,18,3,18,0.26
2013-5-30,59,48,37,34,30,24,80,53,30,29.84,29.71,23,5,29,0.00
2013-5-31,61,50,37,30,24,18,61,38,21,29.99,29.79,24,4,24,0.00
2013-6-1,67,50,33,36,27,19,62,42,25,30.10,29.96,13,2,19,0.00
2013-6-2,77,57,35,40,30,25,67,39,20,30.00,29.65,16,2,17,0.00
2013-6-3,78,62,45,38,32,25,47,33,20,29.67,29.51,24,4,26,0.00
2013-6-4,76,61,42,40,34,24,57,38,23,29.73,29.60,21,3,22,0.00
2013-6-5,72,59,43,41,34,29,64,41,24,29.81,29.70,20,3,20,0.00
2013-6-6,76,59,39,40,34,27,60,41,23,29.87,29.74,13,2,15,0.00
2013-6-7,75,60,46,44,37,32,66,44,26,29.79,29.63,17,2,19,0.00
2013-6-8,77,62,46,44,38,31,63,42,24,29.72,29.61,17,3,18,0.00
2013-6-9,82,65,46,45,36,28,54,36,22,29.81,29.67,10,2,12,0.00
2013-6-10,86,69,48,51,37,30,53,34,17,29.71,29.53,20,2,24,0.00
2013-6-11,80,67,54,36,31,25,39,27,18,29.75,29.55,30,5,33,0.00
2013-6-12,83,65,46,44,33,26,50,32,18,29.84,29.73,22,2,24,0.00
2013-6-13,81,67,51,49,35,26,52,33,22,29.78,29.59,22,3,25,0.00
2013-6-14,81,67,51,43,35,22,57,32,17,29.66,29.53,19,2,20,0.00
2013-6-15,76,60,42,40,31,19,49,34,23,29.84,29.65,23,2,31,0.00
2013-6-16,72,57,46,48,39,31,68,51,36,29.94,29.83,10,1,15,0.01
2013-6-17,78,60,43,48,39,34,73,48,23,29.95,29.77,15,1,16,0.00
2013-6-18,78,62,46,50,36,21,65,40,21,29.81,29.54,17,2,18,0.00
2013-6-19,80,65,46,41,26,18,44,24,13,29.62,29.45,28,4,30,0.00
2013-6-20,79,64,44,37,27,18,42,26,17,29.62,29.51,22,4,25,0.00
2013-6-21,79,64,44,35,28,20,46,27,17,29.67,29.55,20,4,22,0.00
2013-6-22,76,63,47,37,29,22,41,28,19,29.67,29.53,22,4,26,0.00
2013-6-23,78,61,41,40,31,23,55,34,20,29.73,29.54,18,2,18,0.00
2013-6-24,76,63,45,37,28,23,44,28,17,29.64,29.55,24,4,26,0.00
2013-6-25,78,65,54,43,35,26,47,33,26,29.76,29.59,14,2,18,0.00
2013-6-26,85,67,46,48,39,32,59,38,22,29.87,29.75,13,1,15,0.00
2013-6-27,90,72,51,48,40,32,52,33,17,29.94,29.78,8,0,11,0.00
2013-6-28,91,71,54,52,42,32,50,35,20,29.88,29.71,13,1,18,0.00
2013-6-29,87,69,56,53,44,38,55,41,24,29.81,29.65,15,1,15,0.00
2013-6-30,84,66,51,53,45,39,64,47,29,29.83,29.68,11,0,11,0.00
2013-7-1,84,67,49,49,42,38,71,43,22,29.92,29.75,11,1,13,0.00
2013-7-2,83,67,51,48,42,35,62,42,25,29.85,29.70,10,1,12,0.00
2013-7-3,85,64,49,46,40,35,60,44,22,29.80,29.64,15,1,16,0.00
2013-7-4,83,66,47,52,44,39,74,48,25,29.78,29.58,12,0,12,0.00
2013-7-5,83,67,53,55,49,41,80,55,32,29.67,29.48,12,1,13,0.03
2013-7-6,81,67,53,53,48,43,78,53,29,29.69,29.56,16,1,17,0.00
2013-7-7,86,69,54,52,46,43,69,47,26,29.81,29.58,17,1,17,0.01
2013-7-8,83,66,48,55,47,40,92,57,24,29.87,29.76,14,1,17,0.04
2013-7-9,86,70,52,51,43,39,65,41,22,29.91,29.77,11,1,13,0.00
2013-7-10,90,73,56,52,43,37,57,36,20,29.82,29.58,14,1,17,0.00
2013-7-11,91,71,54,52,45,37,68,42,20,29.69,29.47,19,2,22,0.00
2013-7-12,82,63,53,59,52,46,88,69,37,29.82,29.60,16,1,17,0.36
2013-7-13,82,65,54,59,53,48,88,69,37,29.85,29.74,14,1,16,0.10
2013-7-14,83,66,55,57,51,47,90,62,33,29.90,29.73,10,1,11,0.05
2013-7-15,85,66,52,56,50,44,77,58,29,29.78,29.58,8,1,10,0.02
2013-7-16,87,68,52,55,49,45,80,55,27,29.79,29.63,14,1,15,0.00
2013-7-17,87,68,55,58,50,45,71,55,31,29.86,29.68,16,1,18,0.00
2013-7-18,84,65,52,55,50,45,85,60,32,29.91,29.72,14,1,16,0.01
2013-7-19,86,68,52,55,49,35,87,56,17,29.88,29.66,11,1,14,0.00
2013-7-20,87,69,52,52,44,34,71,44,20,29.73,29.56,9,1,11,0.00
2013-7-21,88,70,50,46,37,30,50,32,16,29.69,29.55,10,1,14,0.00
2013-7-22,89,72,56,46,37,27,51,30,15,29.71,29.58,11,1,13,0.00
2013-7-23,90,71,50,43,33,24,42,26,16,29.77,29.63,9,0,11,0.00
2013-7-24,80,68,60,49,41,28,51,37,24,29.77,29.67,26,2,26,0.00
2013-7-25,80,65,53,52,47,42,82,54,30,29.91,29.71,8,1,14,0.01
2013-7-26,84,66,48,50,43,36,78,47,23,29.98,29.79,9,1,9,0.00
2013-7-27,81,62,52,55,45,35,81,55,33,29.83,29.64,16,1,18,0.19
2013-7-28,72,58,51,58,51,46,92,80,49,29.78,29.70,10,0,12,0.33
2013-7-29,74,58,50,56,50,45,91,75,46,29.98,29.78,11,1,12,0.19
2013-7-30,78,62,45,51,45,39,82,57,32,30.09,29.97,13,1,16,0.00
2013-7-31,83,65,48,52,43,38,72,49,25,30.07,29.85,14,1,15,0.00
2013-8-1,73,58,51,52,45,36,88,65,39,29.91,29.84,21,2,21,0.03
2013-8-2,82,64,48,54,49,44,89,62,34,29.96,29.78,11,0,12,0.00
2013-8-3,82,66,52,52,47,43,72,51,30,29.88,29.74,12,1,16,0.00
2013-8-4,83,61,47,53,47,41,87,64,28,29.94,29.80,17,1,24,0.06
2013-8-5,78,61,47,55,48,43,88,66,35,29.96,29.82,13,1,14,0.01
2013-8-6,78,59,48,53,46,42,82,64,33,29.88,29.77,9,1,11,0.00
2013-8-7,76,59,49,48,44,41,77,61,34,29.88,29.77,11,1,15,0.00
2013-8-8,74,59,50,52,43,40,76,58,35,29.90,29.77,11,1,11,0.03
2013-8-9,74,58,45,48,42,37,80,56,32,30.03,29.89,9,1,13,0.00
2013-8-10,78,59,43,47,40,35,73,53,25,30.03,29.91,17,2,20,0.00
2013-8-11,80,60,42,47,40,35,81,52,24,30.06,29.88,12,1,14,0.00
2013-8-12,78,60,44,45,40,34,69,50,27,29.97,29.84,13,1,16,0.00
2013-8-13,77,58,43,50,42,36,80,58,30,30.00,29.90,18,1,21,0.04
2013-8-18,80,66,54,53,46,43,71,51,30,29.91,29.73,11,1,12,0.03
2013-8-19,88,67,47,50,43,35,78,47,16,29.96,29.72,11,1,11,0.00
2013-8-20,85,65,53,52,44,38,86,51,25,29.84,29.65,15,1,16,0.08
2013-8-21,86,65,47,55,47,42,89,58,22,29.92,29.79,11,1,14,0.00
2013-8-22,82,68,55,52,47,41,84,50,32,29.87,29.68,11,1,17,0.01
2013-8-23,80,62,50,55,49,45,86,66,32,29.83,29.65,23,1,25,0.01
2013-8-24,77,62,48,53,46,41,89,60,29,29.88,29.79,18,1,23,0.02
2013-8-25,72,61,53,57,49,42,89,67,42,29.94,29.85,17,1,17,0.07
2013-8-26,75,62,54,55,52,49,90,70,48,30.00,29.86,11,1,13,0.00
2013-8-27,84,65,50,55,50,46,85,62,31,29.94,29.72,16,1,17,0.06
2013-8-28,86,67,52,55,50,46,86,58,27,29.86,29.73,14,1,16,0.02
2013-8-29,88,68,50,53,47,43,78,52,22,29.92,29.78,12,1,17,0.00
2013-8-30,84,66,53,53,48,43,75,55,30,29.90,29.76,12,1,14,0.00
2013-8-31,83,65,52,53,49,45,79,59,29,29.89,29.71,11,1,14,0.00
2013-9-1,86,66,50,54,48,39,84,58,27,29.85,29.71,17,1,20,0.00
2013-9-2,84,67,52,51,47,43,72,50,29,29.86,29.69,16,2,16,0.00
2013-9-3,86,68,52,52,46,43,74,48,27,29.87,29.72,14,1,15,0.00
2013-9-4,88,69,58,52,47,43,61,47,26,29.89,29.75,14,1,19,0.00
2013-9-5,88,69,53,52,47,42,66,49,27,29.92,29.74,14,2,15,0.00
2013-9-6,90,65,51,52,48,42,80,58,22,29.91,29.69,14,1,21,0.09
2013-9-7,86,64,48,53,47,43,85,58,25,29.90,29.72,9,1,11,0.00
2013-9-8,82,64,51,52,47,42,77,55,28,29.82,29.57,17,2,20,0.01
2013-9-9,64,55,50,56,50,46,89,82,68,29.81,29.66,18,1,18,0.10
2013-9-10,65,56,50,56,51,47,92,84,66,29.87,29.81,8,0,9,0.08
2013-9-11,70,58,52,56,51,48,89,78,55,29.92,29.82,17,1,19,0.06
2013-9-12,74,57,47,54,49,44,91,77,43,29.99,29.83,11,1,18,0.30
2013-9-13,74,58,51,54,48,43,93,73,37,29.89,29.65,9,1,11,0.20
2013-9-14,69,55,48,52,46,42,90,74,44,29.83,29.69,11,1,13,0.19
2013-9-15,67,54,47,52,47,43,90,77,48,29.97,29.82,10,1,13,0.10
2013-9-16,74,56,44,54,46,42,91,72,41,30.03,29.86,12,1,12,0.01
2013-9-17,74,56,44,50,44,39,87,68,32,29.92,29.67,18,1,22,0.00
2013-9-18,71,54,46,50,45,42,87,74,42,29.81,29.63,16,2,20,0.45
2013-9-19,67,52,41,47,38,27,90,64,31,29.99,29.78,12,2,12,0.01
2013-9-20,73,52,34,39,31,26,77,50,24,30.07,29.89,10,1,11,0.00
2013-9-21,74,57,41,44,36,28,69,47,29,29.94,29.65,16,2,18,0.00
2013-9-22,63,49,38,49,42,36,91,76,51,29.69,29.42,21,2,22,0.66
2013-9-23,58,45,37,42,36,30,92,72,40,30.12,29.61,13,2,18,0.14
2013-9-24,70,48,31,39,30,22,88,55,19,30.18,29.85,13,1,15,0.01
2013-9-25,71,58,42,33,29,23,54,35,21,29.85,29.34,31,6,37,0.00
2013-9-26,70,60,45,34,29,23,49,32,21,29.44,29.29,25,6,28,0.00
2013-9-27,54,40,28,40,33,25,89,78,45,30.11,29.38,21,3,27,0.20
2013-9-28,58,38,23,37,28,20,90,72,36,30.37,30.11,8,1,9,0.11
2013-9-29,64,46,30,34,28,22,78,53,31,30.28,30.00,13,1,13,0.00
2013-9-30,73,53,38,37,29,23,60,42,25,30.02,29.76,13,1,14,0.00
2013-10-1,73,54,38,38,31,27,68,44,25,29.90,29.74,12,1,13,0.00
2013-10-2,69,54,38,34,28,23,61,39,22,29.86,29.68,19,3,22,0.00
2013-10-3,66,52,30,35,28,23,89,43,27,29.70,29.40,27,5,31,0.11
2013-10-4,33,28,22,28,24,17,90,84,70,30.42,29.63,15,2,15,0.30
2013-10-5,47,32,23,27,23,18,92,72,42,30.56,30.42,9,1,9,0.14
2013-10-6,60,38,22,33,25,17,84,63,31,30.56,30.35,7,1,9,0.00
2013-10-7,70,46,29,37,29,24,83,55,23,30.35,29.96,8,1,9,0.00
2013-10-8,66,51,38,32,27,22,58,41,26,29.96,29.64,25,3,25,0.00
2013-10-9,62,50,38,32,28,22,62,44,27,29.72,29.63,10,1,11,0.00
2013-10-10,48,40,32,37,32,23,92,74,41,29.74,29.49,14,1,20,0.25
2013-10-11,44,37,33,37,32,30,90,84,69,30.12,29.73,12,1,13,0.08
2013-10-12,53,39,27,33,28,24,88,66,36,30.20,30.04,12,1,17,0.01
2013-10-13,62,44,30,37,30,24,86,61,34,30.10,29.77,17,2,20,0.03
2013-10-14,41,35,32,37,32,29,91,88,82,30.18,29.78,14,2,18,0.28
2013-10-15,42,34,30,32,29,26,90,81,57,30.21,30.10,15,1,15,0.02
2013-10-16,44,33,25,27,23,19,92,69,38,30.24,30.13,15,2,15,0.00
2013-10-17,49,34,22,28,21,16,82,61,35,30.26,30.05,13,2,14,0.00
2013-10-18,42,32,25,28,21,14,90,67,36,30.32,30.05,13,2,14,0.03
2013-10-19,51,35,21,25,19,14,75,55,31,30.36,30.16,11,1,13,0.00
2013-10-20,51,38,26,27,22,18,73,55,37,30.16,29.96,18,2,18,0.00
2013-10-21,52,38,26,30,24,20,83,60,35,30.27,30.05,13,2,14,0.01
2013-10-22,59,40,26,30,25,19,76,55,32,30.34,30.17,10,1,11,0.00
2013-10-23,63,44,29,32,25,21,77,52,25,30.22,30.05,11,1,11,0.00
2013-10-24,63,44,30,32,24,20,68,47,26,30.17,30.04,9,1,10,0.00
2013-10-25,57,43,30,30,25,20,65,49,33,30.18,30.05,13,1,14,0.00
2013-10-26,61,44,31,31,25,22,74,51,25,30.29,30.15,10,1,12,0.00
2013-10-27,57,42,30,30,24,20,68,50,33,30.17,29.82,12,1,12,0.00
2013-10-28,59,45,32,31,24,19,74,46,24,29.82,29.63,31,4,31,0.00
2013-10-29,48,38,30,31,25,18,90,64,33,29.82,29.64,29,3,32,0.04
2013-10-30,36,30,27,32,26,23,90,86,73,30.05,29.80,14,1,17,0.30
2013-10-31,32,29,27,27,25,24,90,85,74,30.21,30.04,6,0,7,0.06
2013-11-1,41,32,25,32,26,20,90,79,54,30.41,30.18,14,1,16,0.10
2013-11-2,55,34,20,30,21,15,83,61,25,30.42,29.99,9,1,9,0.00
2013-11-3,53,40,22,29,21,14,88,50,33,29.99,29.55,24,6,27,0.00
2013-11-4,38,27,17,27,20,12,86,76,59,30.01,29.85,17,1,17,0.02
2013-11-5,30,21,12,22,13,4,87,71,37,30.53,30.01,17,3,17,0.01
2013-11-6,36,22,9,18,11,3,76,64,45,30.75,30.53,7,0,9,0.01
2013-11-7,50,32,18,26,20,12,79,61,36,30.74,30.22,7,1,7,0.00
2013-11-8,52,39,30,24,21,17,68,48,32,30.23,29.99,15,2,16,0.00
2013-11-9,55,39,28,27,21,17,66,50,30,30.26,30.12,11,1,12,0.00
2013-11-10,57,39,27,27,21,17,67,49,28,30.34,30.20,11,1,12,0.00
2013-11-11,56,39,26,27,21,16,67,49,28,30.46,30.31,8,1,9,0.00
2013-11-12,59,40,27,27,19,11,67,45,22,30.56,30.41,8,1,8,0.00
2013-11-13,54,38,26,24,18,11,57,45,28,30.46,30.12,11,1,13,0.00
2013-11-14,49,37,28,28,22,15,73,54,33,30.12,29.80,10,1,10,0.00
2013-11-15,49,36,28,29,21,12,89,56,33,29.81,29.53,27,4,28,0.00
2013-11-16,36,30,26,29,25,21,92,82,62,29.74,29.52,18,2,20,0.02
2013-11-17,39,32,26,26,23,19,84,71,52,30.28,29.74,16,1,20,0.21
2013-11-18,47,31,20,28,20,15,84,67,35,30.43,30.22,5,1,6,0.03
2013-11-19,46,32,22,31,24,15,90,74,46,30.23,29.95,11,1,12,0.02
2013-11-20,42,35,31,34,30,28,91,84,62,29.99,29.83,6,0,7,0.14
2013-11-21,37,31,23,34,29,20,91,90,85,30.31,29.87,9,1,10,0.21
2013-11-22,30,25,22,24,20,17,87,82,74,30.47,30.30,10,2,11,0.00
2013-11-23,38,30,25,30,25,22,89,82,70,30.49,30.22,8,1,10,0.06
2013-11-24,32,29,27,29,26,24,91,88,82,30.22,30.06,13,2,14,0.01
2013-11-25,38,28,21,28,22,17,88,78,59,30.46,30.11,10,1,10,0.02
2013-11-26,41,27,17,26,19,13,86,73,50,30.58,30.46,6,1,7,0.01
2013-11-27,42,27,16,24,18,11,83,70,44,30.52,30.31,7,1,7,0.00
2013-11-28,45,30,19,26,20,14,81,67,44,30.35,30.22,7,1,7,0.00
2013-11-29,45,29,20,26,19,14,81,67,45,30.44,30.31,8,1,8,0.00
2013-11-30,42,26,15,25,18,10,92,71,47,30.50,30.38,10,1,10,0.00
2013-12-1,32,23,15,24,18,11,89,83,70,30.52,30.38,7,0,7,0.00
2013-12-2,36,28,23,25,22,19,89,78,64,30.41,29.84,8,1,8,0.00
2013-12-3,39,32,22,27,22,19,89,70,48,29.85,29.35,30,5,30,0.00
2013-12-4,27,9,-4,100,18,-4,92,84,79,30.27,29.29,15,2,16,0.00
2013-12-5,11,-1,-13,100,50,-5,83,79,75,30.44,30.27,3,0,4,0.00
2013-12-6,12,3,-4,100,37,-4,88,79,75,30.53,30.43,5,0,5,0.00
2013-12-7,19,12,4,13,8,0,92,81,74,30.52,29.90,7,0,8,0.00
2013-12-8,16,10,3,12,5,-2,86,79,69,30.30,29.84,10,1,11,0.00
2013-12-9,12,2,-6,100,16,-100,81,69,50,30.93,30.30,8,1,10,0.01
2013-12-10,22,6,-8,100,39,-6,77,67,50,30.95,30.75,6,0,7,0.00
2013-12-11,32,14,5,18,7,0,91,72,46,30.86,30.75,5,0,5,0.02
2013-12-12,32,18,7,18,10,2,82,71,53,30.85,30.42,5,0,5,0.13
2013-12-13,33,20,9,19,12,5,86,70,50,30.46,30.23,5,0,5,0.07
2013-12-14,29,19,11,16,12,7,85,73,52,30.72,30.46,6,0,6,0.02
2013-12-15,38,24,16,22,15,10,79,69,49,30.73,30.59,5,0,6,0.02
2013-12-16,45,27,17,25,17,12,80,66,40,30.64,30.54,5,1,5,0.01
2013-12-17,41,28,17,23,16,11,80,63,43,30.67,30.44,5,1,5,0.00
2013-12-18,43,30,20,23,16,11,73,58,37,30.44,29.90,7,1,8,0.00
2013-12-19,43,33,24,25,21,16,85,62,40,29.93,29.64,22,3,23,0.00
2013-12-20,30,26,20,26,22,16,90,87,78,29.82,29.67,11,1,13,0.04
2013-12-21,25,19,11,19,14,6,88,83,76,30.14,29.74,10,0,12,0.00
2013-12-22,27,18,12,17,12,8,86,78,56,30.51,30.14,8,1,8,0.01
2013-12-23,30,23,18,21,17,14,94,80,65,30.66,30.49,5,0,5,0.00
2013-12-24,29,22,10,22,16,4,88,79,66,30.63,30.34,18,1,18,0.00
2013-12-25,30,14,5,13,6,0,82,69,48,30.85,30.62,4,1,4,0.00
2013-12-26,33,18,8,16,9,2,79,66,47,30.84,30.67,4,0,6,0.01
2013-12-27,39,24,14,21,14,8,79,67,46,30.73,30.43,5,0,6,0.01
2013-12-28,36,25,16,22,16,12,84,69,49,30.43,30.11,5,0,5,0.00
2013-12-29,30,22,13,17,13,5,82,69,48,30.40,30.18,8,1,10,0.00
2013-12-30,36,23,15,17,12,8,77,63,45,30.59,30.38,6,0,6,0.00
2013-12-31,31,24,17,22,17,9,87,75,67,30.49,30.28,5,0,6,0.02
2014-1-1,32,24,14,24,16,7,88,73,46,30.53,30.22,15,2,17,0.07
2014-1-2,42,22,11,19,9,4,76,58,29,30.64,30.45,6,1,7,0.01